Location: ????????
(60.4333°N, 46.4710°E)
Time: 04:15:30
(UTC+00:00)

Cosmos 1697 Rocket - Pass Details

Date: 25 November 2020
Orbit: 831 x 845 km, 71.0° (Epoch: 19 January)

Event Time Altitude Azimuth Distance (km) Brightness Sun altitude
Rises 15:10:19 0° 297° (WNW) 3,403 6.8 -21.6°
Reaches altitude 10° 15:13:05 10° 308° (NW) 2,470 5.8 -22.0°
Maximum altitude 15:18:01 29° 9° (N) 1,495 3.9 -22.6°
Enters shadow 15:19:02 28° 27° (NNE) 1,549 3.8 -22.7°
